Oakes, ND

5:18 PM CST on November 11, 2019 (GMT -0600)
Oakes

Weather History for K2D5 - September, 2019

Change the Weather History Date:

Saturday, September 28, 2019

  Actual Average (WUND) Record (WUND)
Temperature  
Mean Temperature 44 °F -  
Max Temperature 55 °F - - (-1)
Min Temperature 32 °F - - (-1)
Degree Days  
Heating Degree Days 22    
Moisture  
Dew Point 38 °F    
Average Humidity 77    
Maximum Humidity 100    
Minimum Humidity 47    
Precipitation  
Precipitation 0.00 in - - ()
Sea Level Pressure  
Sea Level Pressure 30.16 in    
Wind  
Wind Speed 5 mph (East)    
Max Wind Speed 15 mph    
Max Gust Speed 21 mph    
Visibility 8 miles    
Events Fog    
Averages and records for this station are not official NWS values.
T = Trace of Precipitation, MM = Missing Value Source: NWS Daily Summary

Daily Weather History Graph

Daily Weather History Graph

Search for Another Location

Airport or City:

Astronomy

Sep. 28, 2019 Rise Set
Actual Time 7:26 AM CDT 7:18 PM CDT
Civil Twilight 6:56 AM CDT 7:48 PM CDT
Nautical Twilight 6:21 AM CDT 8:23 PM CDT
Astronomical Twilight 5:46 AM CDT 8:58 PM CDT
Moon 7:00 AM CDT (9/28) 7:47 PM CDT (9/28)
Length of Visible Light 12h 51m
Length of Day
11h 51m
Waning Crescent, 0% of the Moon is Illuminated
Sep 28
Waning Crescent
Sep 28
New
Oct 5
First Quarter
Oct 13
Full
Oct 21
Last Quarter

Hourly Weather History & Observations

Time (CDT) Temp. Windchill Dew Point Humidity Pressure Visibility Wind Dir Wind Speed Gust Speed Precip Events Conditions
12:15 AM 39.2 °F 35.0 °F 39.2 °F 100% 30.03 in 10.0 mi NW 5.8 mph - N/A   Clear
12:35 AM 39.2 °F - 39.2 °F 100% 30.03 in 10.0 mi Calm Calm - N/A   Clear
12:55 AM 39.2 °F 35.0 °F 39.2 °F 100% 30.04 in 10.0 mi WNW 5.8 mph - N/A   Clear
1:15 AM 39.2 °F 35.0 °F 39.2 °F 100% 30.05 in 10.0 mi West 5.8 mph - N/A   Clear
1:35 AM 37.4 °F - 37.4 °F 100% 30.06 in 10.0 mi Calm Calm - N/A   Clear
1:55 AM 37.4 °F - 37.4 °F 100% 30.06 in 10.0 mi Calm Calm - N/A   Partly Cloudy
2:15 AM 37.4 °F - 37.4 °F 100% 30.07 in 10.0 mi Calm Calm - N/A   Clear
2:35 AM 37.4 °F - 37.4 °F 100% 30.07 in 10.0 mi Calm Calm - N/A   Clear
2:55 AM 37.4 °F - 37.4 °F 100% 30.08 in 10.0 mi Calm Calm - N/A   Clear
3:15 AM 35.6 °F - 35.6 °F 100% 30.08 in 10.0 mi Calm Calm - N/A   Clear
3:35 AM 37.4 °F - 37.4 °F 100% 30.09 in 2.5 mi Calm Calm - N/A   Clear
3:55 AM 35.6 °F - 35.6 °F 100% 30.10 in 6.0 mi Calm Calm - N/A   Clear
4:15 AM 33.8 °F - 33.8 °F 100% 30.11 in 3.0 mi Calm Calm - N/A   Clear
4:35 AM 33.8 °F - 33.8 °F 100% 30.11 in 0.2 mi Calm Calm - N/A Fog Fog
4:55 AM 35.6 °F - 35.6 °F 100% 30.12 in 1.8 mi Calm Calm - N/A   Clear
5:15 AM 33.8 °F - 33.8 °F 100% 30.13 in 0.2 mi Calm Calm - N/A Fog Fog
5:35 AM 32.0 °F - 32.0 °F 100% 30.13 in 0.2 mi Calm Calm - N/A Fog Fog
5:55 AM 32.0 °F - 32.0 °F 100% 30.14 in 0.2 mi Calm Calm - N/A Fog Fog
6:15 AM 32.0 °F - 32.0 °F 100% 30.15 in 0.2 mi Calm Calm - N/A Fog Fog
6:35 AM 32.0 °F - 32.0 °F 100% 30.16 in 0.2 mi Calm Calm - N/A Fog Fog
6:55 AM 32.0 °F - 32.0 °F 100% 30.17 in 0.2 mi Calm Calm - N/A Fog Fog
7:15 AM 33.8 °F 29.6 °F 33.8 °F 100% 30.19 in 0.2 mi WNW 4.6 mph - N/A Fog Fog
7:35 AM 33.8 °F 30.8 °F 33.8 °F 100% 30.19 in 5.0 mi WNW 3.5 mph - N/A   Clear
7:55 AM 33.8 °F 30.8 °F 33.8 °F 100% 30.20 in 8.0 mi North 3.5 mph - N/A   Clear
8:15 AM 33.8 °F - 33.8 °F 100% 30.21 in 9.0 mi Calm Calm - N/A   Clear
8:35 AM 35.6 °F - 35.6 °F 100% 30.22 in 9.0 mi Calm Calm - N/A   Clear
8:55 AM 39.2 °F - 39.2 °F 100% 30.22 in 9.0 mi Calm Calm - N/A   Clear
9:15 AM 41.0 °F 39.0 °F 41.0 °F 100% 30.22 in 10.0 mi NE 3.5 mph - N/A   Clear
9:35 AM 42.8 °F 40.1 °F 42.8 °F 100% 30.22 in 10.0 mi ENE 4.6 mph - N/A   Clear
9:55 AM 46.4 °F 44.3 °F 46.4 °F 100% 30.22 in 10.0 mi East 4.6 mph - N/A   Clear
10:15 AM 50.0 °F - 42.8 °F 76% 30.24 in 10.0 mi ESE 6.9 mph - N/A   Clear
10:35 AM 50.0 °F - 39.2 °F 66% 30.23 in 10.0 mi ESE 8.1 mph - N/A   Clear
10:55 AM 51.8 °F - 39.2 °F 62% 30.23 in 10.0 mi East 10.4 mph - N/A   Clear
11:15 AM 53.6 °F - 39.2 °F 58% 30.23 in 10.0 mi East 8.1 mph - N/A   Clear
11:35 AM 53.6 °F - 37.4 °F 54% 30.23 in 10.0 mi ENE 10.4 mph - N/A   Clear
11:55 AM 55.4 °F - 37.4 °F 51% 30.23 in 10.0 mi East 11.5 mph 18.4 mph N/A   Clear
12:15 PM 55.4 °F - 35.6 °F 47% 30.23 in 10.0 mi East 15.0 mph - N/A   Clear
12:35 PM 55.4 °F - 35.6 °F 47% 30.24 in 10.0 mi East 9.2 mph 16.1 mph N/A   Clear
12:55 PM 55.4 °F - 35.6 °F 47% 30.24 in 10.0 mi ESE 11.5 mph 17.3 mph N/A   Partly Cloudy
1:15 PM 55.4 °F - 37.4 °F 51% 30.24 in 10.0 mi SE 12.7 mph - N/A   Scattered Clouds
1:35 PM 55.4 °F - 35.6 °F 47% 30.24 in 10.0 mi SE 11.5 mph 17.3 mph N/A   Partly Cloudy
1:55 PM 55.4 °F - 37.4 °F 51% 30.23 in 10.0 mi East 11.5 mph - N/A   Clear
2:15 PM 55.4 °F - 35.6 °F 47% 30.23 in 10.0 mi ESE 11.5 mph - N/A   Clear
2:35 PM 55.4 °F - 37.4 °F 51% 30.22 in 10.0 mi ESE 12.7 mph - N/A   Clear
2:55 PM 55.4 °F - 37.4 °F 51% 30.22 in 10.0 mi East 11.5 mph 17.3 mph N/A   Clear
3:15 PM 55.4 °F - 37.4 °F 51% 30.21 in 10.0 mi East 13.8 mph - N/A   Clear
3:35 PM 55.4 °F - 37.4 °F 51% 30.21 in 9.0 mi East 12.7 mph - N/A   Clear
3:55 PM 55.4 °F - 37.4 °F 51% 30.20 in 10.0 mi East 11.5 mph 18.4 mph N/A   Clear
4:15 PM 53.6 °F - 35.6 °F 51% 30.19 in 10.0 mi East 11.5 mph - N/A   Clear
4:35 PM 53.6 °F - 37.4 °F 54% 30.19 in 10.0 mi East 12.7 mph - N/A   Clear
4:55 PM 53.6 °F - 37.4 °F 54% 30.19 in 10.0 mi ESE 13.8 mph - N/A   Clear
5:15 PM 53.6 °F - 37.4 °F 54% 30.18 in 10.0 mi East 11.5 mph - N/A   Clear
5:35 PM 53.6 °F - 37.4 °F 54% 30.17 in 10.0 mi East 13.8 mph - N/A   Clear
5:55 PM 51.8 °F - 41.0 °F 67% 30.16 in 9.0 mi ENE 10.4 mph - N/A   Partly Cloudy
6:15 PM 51.8 °F - 41.0 °F 67% 30.16 in 9.0 mi East 9.2 mph - N/A   Partly Cloudy
6:35 PM 50.0 °F - 41.0 °F 71% 30.17 in 10.0 mi East 10.4 mph - N/A   Mostly Cloudy
6:55 PM 50.0 °F - 41.0 °F 71% 30.16 in 10.0 mi East 11.5 mph - N/A   Overcast
7:15 PM 50.0 °F - 42.8 °F 76% 30.15 in 10.0 mi East 11.5 mph - N/A   Overcast
7:35 PM 50.0 °F - 42.8 °F 76% 30.15 in 10.0 mi East 12.7 mph - N/A   Mostly Cloudy
7:55 PM 50.0 °F - 41.0 °F 71% 30.16 in 10.0 mi East 11.5 mph - N/A   Overcast
8:15 PM 50.0 °F - 41.0 °F 71% 30.15 in 10.0 mi East 11.5 mph - N/A   Mostly Cloudy
8:35 PM 50.0 °F - 41.0 °F 71% 30.16 in 10.0 mi East 10.4 mph - N/A   Overcast
8:55 PM 50.0 °F - 41.0 °F 71% 30.15 in 10.0 mi East 11.5 mph - N/A   Overcast
9:15 PM 50.0 °F - 41.0 °F 71% 30.15 in 10.0 mi East 12.7 mph - N/A   Overcast
9:35 PM 50.0 °F - 41.0 °F 71% 30.15 in 10.0 mi East 12.7 mph 18.4 mph N/A   Overcast
9:55 PM 50.0 °F - 41.0 °F 71% 30.15 in 10.0 mi East 12.7 mph 19.6 mph N/A   Overcast
10:15 PM 50.0 °F - 41.0 °F 71% 30.15 in 10.0 mi East 13.8 mph 20.7 mph N/A   Overcast
10:35 PM 50.0 °F - 41.0 °F 71% 30.15 in 10.0 mi East 11.5 mph 18.4 mph N/A   Overcast
10:55 PM 50.0 °F - 41.0 °F 71% 30.15 in 10.0 mi ENE 11.5 mph 17.3 mph N/A   Overcast
11:15 PM 50.0 °F - 41.0 °F 71% 30.16 in 10.0 mi East 12.7 mph - N/A   Overcast
11:35 PM 50.0 °F - 41.0 °F 71% 30.15 in 10.0 mi East 13.8 mph - N/A   Overcast
11:55 PM 50.0 °F - 41.0 °F 71% 30.15 in 10.0 mi East 15.0 mph 20.7 mph N/A   Overcast